IU2EVW-13 Weather Reports


time (UTC)temp
F
wind
direction
speed
knots
gust
knots
rain 1hr
in
rain 24hr
in
rain mn
in
humidity
%
barometer
mb
20260507112309 62 0.0 0.0 0.00 0.00 0.00 48 1015.2
20260507110308 61 0.0 0.0 0.00 0.00 0.00 50 1015.4
20260507104306 60 0.0 0.0 0.00 0.00 0.00 50 1015.6
20260507102307 59 0.0 0.0 0.00 0.00 0.00 57 1015.8
20260507100304 57 0.0 0.0 0.00 0.00 0.00 61 1015.9
20260507094302 57 0.0 0.0 0.00 0.00 0.00 69 1016.0
20260507092301 54 0.0 0.0 0.00 0.00 0.00 66 1016.2
20260507090302 52 0.0 0.0 0.00 0.00 0.00 73 1016.3
20260507084258 51 0.0 0.0 0.00 0.00 0.00 75 1016.3
20260507082257 50 0.0 0.0 0.00 0.00 0.00 77 1016.4
20260507080255 49 0.0 0.0 0.00 0.00 0.00 82 1016.2
20260507074254 48 0.0 0.0 0.00 0.00 0.00 83 1016.4
20260507072253 48 0.0 0.0 0.00 0.00 0.00 85 1016.3
20260507070251 47 0.0 0.0 0.00 0.00 0.00 84 1016.2
20260507064250 46 0.0 0.0 0.00 0.00 0.00 84 1016.3
20260507062249 45 0.0 0.0 0.00 0.00 0.00 84 1016.5
20260507060247 44 0.0 0.0 0.00 0.00 0.00 84 1016.4
20260507054246 44 0.0 0.0 0.00 0.00 0.00 84 1016.2
20260507052244 43 0.0 0.0 0.00 0.00 0.00 85 1016.0
20260507050243 43 0.0 0.0 0.00 0.00 0.00 85 1015.7
20260507044242 43 0.0 0.0 0.00 0.00 0.00 86 1015.7
20260507042241 43 0.0 0.0 0.00 0.00 0.00 85 1015.7
20260507040239 44 0.0 0.0 0.00 0.00 0.00 85 1015.6
20260507034238 44 0.0 0.0 0.00 0.00 0.00 84 1015.7
20260507032236 44 0.0 0.0 0.00 0.00 0.00 84 1015.7
20260507030235 45 0.0 0.0 0.00 0.00 0.00 83 1015.5
20260507024234 44 0.0 0.0 0.00 0.00 0.00 84 1015.7
20260507022232 44 0.0 0.0 0.00 0.00 0.00 85 1015.5
20260507020231 45 0.0 0.0 0.00 0.00 0.00 83 1015.1
20260507014230 44 0.0 0.0 0.00 0.00 0.00 83 1015.6
20260507012228 45 0.0 0.0 0.00 0.00 0.00 82 1015.2
20260507010227 45 0.0 0.0 0.00 0.00 0.00 83 1015.5
20260507004226 45 0.0 0.0 0.00 0.00 0.00 83 1015.6
20260507002224 45 0.0 0.0 0.00 0.00 0.00 85 1015.8
20260507000223 45 0.0 0.0 0.00 0.00 0.00 85 1015.8
20260506234221 44 0.0 0.0 0.00 0.00 0.00 85 1016.4
20260506232220 44 0.0 0.0 0.00 0.00 0.00 85 1016.0
20260506230219 45 0.0 0.0 0.00 0.00 0.00 87 1015.6
20260506224217 44 0.0 0.0 0.00 0.00 0.00 86 1015.4
20260506222216 45 0.0 0.0 0.00 0.00 0.00 84 1015.2
20260506220214 44 0.0 0.0 0.00 0.00 0.00 85 1014.9
20260506214213 45 0.0 0.0 0.00 0.00 0.00 84 1014.9
20260506212212 45 0.0 0.0 0.00 0.00 0.00 83 1014.9
20260506210211 45 0.0 0.0 0.00 0.00 0.00 83 1014.9
20260506204209 44 0.0 0.0 0.00 0.00 0.00 88 1015.0
20260506202208 45 0.0 0.0 0.00 0.00 0.00 84 1014.5
20260506200206 45 0.0 0.0 0.00 0.00 0.00 87 1016.1
20260506194205 45 0.0 0.0 0.00 0.00 0.00 86 1014.9
20260506192204 45 0.0 0.0 0.00 0.00 0.00 85 1013.8
20260506190202 45 0.0 0.0 0.00 0.00 0.00 82 1013.6
20260506184201 46 0.0 0.0 0.00 0.00 0.00 81 1013.5
20260506182200 45 0.0 0.0 0.00 0.00 0.00 84 1013.8
20260506180158 46 0.0 0.0 0.00 0.00 0.00 80 1013.2
20260506174157 46 0.0 0.0 0.00 0.00 0.00 79 1012.8
20260506172155 46 0.0 0.0 0.00 0.00 0.00 79 1012.8
20260506170154 47 0.0 0.0 0.00 0.00 0.00 83 1012.8
20260506164153 46 0.0 0.0 0.00 0.00 0.00 84 1012.8
20260506162151 47 0.0 0.0 0.00 0.00 0.00 86 1012.9
20260506160150 48 0.0 0.0 0.00 0.00 0.00 87 1013.1
20260506154148 47 0.0 0.0 0.00 0.00 0.00 88 1013.2
20260506152147 48 0.0 0.0 0.00 0.00 0.00 86 1012.8
20260506150146 49 0.0 0.0 0.00 0.00 0.00 85 1012.5
20260506144144 49 0.0 0.0 0.00 0.00 0.00 84 1012.0
20260506142143 50 0.0 0.0 0.00 0.00 0.00 86 1011.7
20260506140141 51 0.0 0.0 0.00 0.00 0.00 83 1011.2
20260506134140 52 0.0 0.0 0.00 0.00 0.00 78 1011.0
20260506132138 53 0.0 0.0 0.00 0.00 0.00 78 1011.3
20260506130137 54 0.0 0.0 0.00 0.00 0.00 84 1011.3
20260506124136 51 0.0 0.0 0.00 0.00 0.00 83 1010.9
20260506122134 53 0.0 0.0 0.00 0.00 0.00 80 1010.9
20260506120133 56 0.0 0.0 0.00 0.00 0.00 76 1010.6
20260506114132 54 0.0 0.0 0.00 0.00 0.00 81 1011.1